This is the latest recevied weather packets stored in our database for station/object OE6PLD-13. If no packets are shown the sender has not sent any weather packets the latest 10 day(s).
| Time | Temp. | Humidity | Pressure | Rain* | Wind** | Luminosity | Snow |
|---|---|---|---|---|---|---|---|
| 1777806573 | 23.89° C | 38% | 1009.6 hPa | 0.76 mm | - | 602 W/m² | - |
| 1777806390 | 24.44° C | 37% | 1009.8 hPa | 0.76 mm | - | 605 W/m² | - |
| 1777806206 | 24.44° C | 37% | 1009.8 hPa | 0.76 mm | - | 600 W/m² | - |
| 1777806023 | 24.44° C | 37% | 1009.9 hPa | 0.76 mm | - | 584 W/m² | - |
| 1777805840 | 24.44° C | 37% | 1009.8 hPa | 0.76 mm | - | 569 W/m² | - |
| 1777805656 | 24.44° C | 36% | 1009.8 hPa | 0.76 mm | - | 559 W/m² | - |
| 1777805473 | 23.89° C | 36% | 1010 hPa | 0.76 mm | - | 558 W/m² | - |
| 1777805290 | 23.89° C | 37% | 1010 hPa | 0.76 mm | - | 566 W/m² | - |
| 1777805106 | 24.44° C | 38% | 1010.1 hPa | 0.76 mm | - | 591 W/m² | - |
| 1777804923 | 23.89° C | 39% | 1009.9 hPa | 0.76 mm | - | 608 W/m² | - |
| 1777804740 | 23.89° C | 39% | 1010.2 hPa | 0.76 mm | - | 618 W/m² | - |
| 1777804556 | 23.89° C | 38% | 1010 hPa | 0.76 mm | - | 609 W/m² | - |
| 1777804373 | 23.89° C | 40% | 1010.3 hPa | 0.76 mm | - | 621 W/m² | - |
| 1777804190 | 23.89° C | 39% | 1010.1 hPa | 0.76 mm | - | 626 W/m² | - |
| 1777804006 | 23.89° C | 39% | 1010.3 hPa | 0.76 mm | - | 643 W/m² | - |
| 1777803823 | 23.89° C | 40% | 1010.1 hPa | 0.76 mm | - | 667 W/m² | - |
| 1777803639 | 23.89° C | 39% | 1010.3 hPa | 0.76 mm | - | 670 W/m² | - |
| 1777803456 | 23.89° C | 39% | 1010.4 hPa | 0.76 mm | - | 674 W/m² | - |
| 1777803273 | 23.89° C | 39% | 1010.2 hPa | 0.76 mm | - | 671 W/m² | - |
| 1777803089 | 23.33° C | 36% | 1010.6 hPa | 0.76 mm | - | 644 W/m² | - |
| 1777802906 | 23.33° C | 40% | 1010.5 hPa | 0.76 mm | - | 633 W/m² | - |
| 1777802723 | 23.33° C | 40% | 1010.5 hPa | 0.76 mm | - | 621 W/m² | - |
| 1777802539 | 23.33° C | 40% | 1010.4 hPa | 0.76 mm | - | 618 W/m² | - |
| 1777802356 | 23.33° C | 39% | 1010.6 hPa | 0.76 mm | - | 616 W/m² | - |
| 1777802173 | 23.33° C | 40% | 1010.6 hPa | 0.76 mm | - | 619 W/m² | - |
* Rain latest hour (hover to see other rain measurements)
** Current wind speed in m/s (hover to see current wind gust speed)